K8DJB-1 Weather Reports


Display with metric or nautical units.
time (UTC)temp
F
wind
direction
speed
MPH
gust
MPH
rain 1hr
in
rain 24hr
in
rain mn
in
humidity
%
barometer
mb
20260509052823 50 180 4.0 5.0 0.00 0.00 0.00 49 1004.5
20260509052323 50 181 3.0 6.0 0.00 0.00 0.00 49 1004.5
20260509050823 49 189 2.0 5.0 0.00 0.00 0.00 49 1004.6
20260509045823 50 189 1.0 4.0 0.00 0.00 0.00 50 1004.6
20260509045202 49 189 2.0 4.0 0.00 0.00 0.00 48 1004.7
20260509044702 49 189 2.0 4.0 0.00 0.00 0.00 49 1004.7
20260509044202 49 189 2.0 4.0 0.00 0.00 0.00 50 1004.7
20260509043702 48 190 3.0 4.0 0.00 0.00 0.00 51 1004.8
20260509043202 47 190 2.0 4.0 0.00 0.00 0.00 53 1004.8
20260509042702 47 190 2.0 3.0 0.00 0.00 0.00 58 1004.9
20260509042202 47 0 0.0 2.0 0.00 0.00 0.00 59 1004.9
20260509041702 47 0 0.0 0.0 0.00 0.00 0.00 59 1004.9
20260509041203 47 0 0.0 0.0 0.00 0.00 0.00 53 1004.8
20260509040202 46 0 0.0 0.0 0.00 0.00 0.00 60 1005.1
20260509035702 46 0 0.0 0.0 0.00 0.00 0.00 59 1005.1
20260509035202 46 0 0.0 0.0 0.00 0.00 0.00 58 1005.2
20260509034202 46 0 0.0 0.0 0.00 0.00 0.00 59 1005.3
20260509033702 46 0 0.0 0.0 0.00 0.00 0.00 59 1005.2
20260509033528 46 0 0.0 0.0 0.00 0.00 0.00 62 1005.3
20260509033202 46 0 0.0 0.0 0.00 0.00 0.00 62 1005.3
20260509032703 46 0 0.0 0.0 0.00 0.00 0.00 63 1005.3
20260509032202 46 0 0.0 0.0 0.00 0.00 0.00 63 1005.3
20260509031702 46 0 0.0 0.0 0.00 0.00 0.00 62 1005.4
20260509031202 47 0 0.0 0.0 0.00 0.00 0.00 62 1005.4
20260509030702 47 0 0.0 0.0 0.00 0.00 0.00 56 1005.5
20260509030202 47 0 0.0 0.0 0.00 0.00 0.00 54 1005.5
20260509025702 47 0 0.0 0.0 0.00 0.00 0.00 54 1005.5
20260509025202 47 0 0.0 0.0 0.00 0.00 0.00 54 1005.8
20260509024702 47 0 0.0 0.0 0.00 0.00 0.00 51 1005.7
20260509024202 47 0 0.0 0.0 0.00 0.00 0.00 53 1005.8
20260509023702 48 0 0.0 0.0 0.00 0.00 0.00 58 1005.8
20260509023202 48 0 0.0 0.0 0.00 0.00 0.00 57 1006.0
20260509022703 48 0 0.0 0.0 0.00 0.00 0.00 57 1005.9
20260509022202 48 0 0.0 0.0 0.00 0.00 0.00 56 1005.9
20260509021702 49 0 0.0 0.0 0.00 0.00 0.00 58 1005.9
20260509021202 49 0 0.0 0.0 0.00 0.00 0.00 58 1005.9
20260509020203 50 0 0.0 0.0 0.00 0.00 0.00 58 1006.0
20260509015703 50 0 0.0 0.0 0.00 0.00 0.00 56 1006.0
20260509015202 50 0 0.0 0.0 0.00 0.00 0.00 52 1005.9
20260509014703 51 0 0.0 0.0 0.00 0.00 0.00 52 1005.9
20260509014202 51 0 0.0 0.0 0.00 0.00 0.00 55 1005.9
20260509013702 52 0 0.0 0.0 0.00 0.00 0.00 55 1005.8
20260509013202 52 0 0.0 0.0 0.00 0.00 0.00 48 1005.8
20260509012702 53 0 0.0 0.0 0.00 0.00 0.00 49 1005.6
20260509012202 53 0 0.0 0.0 0.00 0.00 0.00 42 1005.6
20260509011702 54 0 0.0 0.0 0.00 0.00 0.00 48 1005.7
20260509011202 55 0 0.0 0.0 0.00 0.00 0.00 42 1005.7
20260509010702 56 0 0.0 1.0 0.00 0.00 0.00 46 1005.7
20260509010202 56 0 0.0 1.0 0.00 0.00 0.00 42 1005.7
20260509005702 57 0 0.0 0.0 0.00 0.00 0.00 41 1005.7
20260509005202 58 0 0.0 0.0 0.00 0.00 0.00 31 1005.7
20260509004702 58 0 0.0 0.0 0.00 0.00 0.00 29 1005.7
20260509004202 59 0 0.0 0.0 0.00 0.00 0.00 27 1005.6
20260509003638 60 0 0.0 2.0 0.00 0.00 0.00 30 1005.7
20260509002909 60 190 1.0 3.0 0.00 0.00 0.00 28 1005.6
20260509002411 61 190 2.0 5.0 0.00 0.00 0.00 26 1005.7
20260509001909 61 191 3.0 5.0 0.00 0.00 0.00 25 1005.7
20260509000909 61 210 2.0 4.0 0.00 0.00 0.00 27 1005.8
20260509000410 62 211 3.0 5.0 0.00 0.00 0.00 25 1005.9
20260508235909 62 211 2.0 5.0 0.00 0.00 0.00 25 1006.0
20260508235409 62 242 3.0 6.0 0.00 0.00 0.00 22 1006.0
20260508234909 62 233 3.0 8.0 0.00 0.00 0.00 22 1006.1
20260508234409 62 234 4.0 10.0 0.00 0.00 0.00 21 1006.3
20260508233909 63 234 5.0 10.0 0.00 0.00 0.00 21 1006.3
20260508233409 63 244 3.0 7.0 0.00 0.00 0.00 22 1006.3
20260508232909 63 261 3.0 8.0 0.00 0.00 0.00 22 1006.3
20260508232409 62 231 4.0 11.0 0.00 0.00 0.00 22 1006.4
20260508231909 62 225 6.0 12.0 0.00 0.00 0.00 23 1006.4
20260508231409 62 234 7.0 12.0 0.00 0.00 0.00 22 1006.4
20260508230909 63 231 8.0 12.0 0.00 0.00 0.00 23 1006.3
20260508230338 63 231 7.0 13.0 0.00 0.00 0.00 23 1006.4
20260508225819 63 247 4.0 12.0 0.00 0.00 0.00 23 1006.3
20260508225319 63 230 8.0 10.0 0.00 0.00 0.00 24 1006.3
20260508224819 63 281 5.0 16.0 0.00 0.00 0.00 23 1006.3
20260508224319 63 254 7.0 16.0 0.00 0.00 0.00 23 1006.3
20260508223819 63 275 4.0 15.0 0.00 0.00 0.00 24 1006.3
20260508223319 63 258 8.0 15.0 0.00 0.00 0.00 22 1006.3
20260508222819 63 236 10.0 14.0 0.00 0.00 0.00 23 1006.3
20260508222319 63 288 9.0 14.0 0.00 0.00 0.00 24 1006.4
20260508221819 63 275 8.0 12.0 0.00 0.00 0.00 23 1006.4
20260508221319 63 267 4.0 14.0 0.00 0.00 0.00 24 1006.4
20260508220819 63 247 7.0 14.0 0.00 0.00 0.00 24 1006.5
20260508220319 63 231 8.0 13.0 0.00 0.00 0.00 24 1006.4
20260508215726 63 268 7.0 11.0 0.00 0.00 0.00 26 1006.5
20260508215108 63 226 10.0 15.0 0.00 0.00 0.00 23 1006.4
20260508214608 63 232 7.0 16.0 0.00 0.00 0.00 23 1006.4
20260508213608 63 222 8.0 12.0 0.00 0.00 0.00 23 1006.5
20260508213108 63 238 8.0 16.0 0.00 0.00 0.00 24 1006.6
20260508212608 63 244 7.0 18.0 0.00 0.00 0.00 25 1006.5
20260508212108 63 288 10.0 18.0 0.00 0.00 0.00 26 1006.5
20260508211608 63 252 6.0 15.0 0.00 0.00 0.00 28 1006.6
20260508210608 63 215 7.0 12.0 0.00 0.00 0.00 31 1006.6
20260508210108 63 267 5.0 14.0 0.00 0.00 0.00 25 1006.6
20260508205608 63 258 9.0 15.0 0.00 0.00 0.00 26 1006.7
20260508205108 62 239 9.0 15.0 0.00 0.00 0.00 26 1006.8
20260508204608 63 243 7.0 15.0 0.00 0.00 0.00 24 1006.8
20260508204109 62 279 12.0 15.0 0.00 0.00 0.00 25 1006.9
20260508203608 62 245 8.0 14.0 0.00 0.00 0.00 25 1006.9
20260508203108 62 264 7.0 13.0 0.00 0.00 0.00 25 1006.9
20260508202608 62 242 8.0 15.0 0.00 0.00 0.00 24 1007.1
20260508202108 62 262 8.0 15.0 0.00 0.00 0.00 24 1007.1
20260508201608 62 241 7.0 16.0 0.00 0.00 0.00 24 1007.1
20260508200608 63 227 9.0 16.0 0.00 0.00 0.00 26 1007.2
20260508200108 63 244 8.0 16.0 0.00 0.00 0.00 28 1007.3
20260508195107 62 309 8.0 17.0 0.00 0.00 0.00 25 1007.4
20260508194607 62 232 10.0 17.0 0.00 0.00 0.00 24 1007.5
20260508194108 62 260 5.0 16.0 0.00 0.00 0.00 25 1007.5
20260508193607 62 294 10.0 16.0 0.00 0.00 0.00 23 1007.5
20260508193107 62 255 6.0 17.0 0.00 0.00 0.00 23 1007.6
20260508192607 62 261 12.0 18.0 0.00 0.00 0.00 25 1007.7
20260508192107 62 272 11.0 18.0 0.00 0.00 0.00 23 1007.7
20260508191607 63 253 9.0 14.0 0.00 0.00 0.00 25 1007.8
20260508191112 62 284 10.0 14.0 0.00 0.00 0.00 26 1007.7
20260508190607 62 317 9.0 14.0 0.00 0.00 0.00 24 1007.7
20260508190107 62 231 7.0 13.0 0.00 0.00 0.00 26 1007.8
20260508185607 61 282 7.0 14.0 0.00 0.00 0.00 25 1007.9
20260508185107 62 309 8.0 17.0 0.00 0.00 0.00 24 1007.9
20260508184607 62 308 8.0 18.0 0.00 0.00 0.00 24 1008.0
20260508183607 62 281 9.0 19.0 0.00 0.00 0.00 26 1008.0
20260508183107 62 217 9.0 19.0 0.00 0.00 0.00 25 1008.0
20260508182607 62 233 10.0 14.0 0.00 0.00 0.00 24 1008.1
20260508182107 62 244 9.0 13.0 0.00 0.00 0.00 24 1008.2
20260508181607 61 324 6.0 13.0 0.00 0.00 0.00 24 1008.2
20260508180607 62 236 6.0 14.0 0.00 0.00 0.00 26 1008.4
20260508180107 62 279 9.0 14.0 0.00 0.00 0.00 26 1008.4
20260508175607 61 184 4.0 13.0 0.00 0.00 0.00 25 1008.4
20260508175107 61 237 6.0 15.0 0.00 0.00 0.00 25 1008.6
20260508174607 61 264 10.0 15.0 0.00 0.00 0.00 24 1008.6
20260508173607 61 294 7.0 17.0 0.00 0.00 0.00 29 1008.8
20260508173107 61 219 6.0 14.0 0.00 0.00 0.00 31 1008.9
20260508172607 60 278 6.0 16.0 0.00 0.00 0.00 33 1009.0
20260508172107 60 232 12.0 16.0 0.00 0.00 0.00 29 1009.1
20260508171218 60 291 10.0 19.0 0.00 0.00 0.00 30 1009.2
20260508170718 60 265 7.0 19.0 0.00 0.00 0.00 30 1009.1
20260508170219 60 225 7.0 15.0 0.00 0.00 0.00 29 1009.2
20260508165718 60 213 5.0 14.0 0.00 0.00 0.00 32 1009.3
20260508165218 60 248 6.0 16.0 0.00 0.00 0.00 29 1009.5
20260508164718 60 292 11.0 16.0 0.00 0.00 0.00 29 1009.6
20260508164218 59 250 9.0 14.0 0.00 0.00 0.00 29 1009.6
20260508163718 59 293 6.0 14.0 0.00 0.00 0.00 30 1009.7
20260508163218 59 211 5.0 10.0 0.00 0.00 0.00 31 1009.8
20260508162115 59 222 10.0 16.0 0.00 0.00 0.00 31 1009.9
20260508161615 59 258 5.0 10.0 0.00 0.00 0.00 32 1009.9
20260508161116 59 260 6.0 12.0 0.00 0.00 0.00 35 1009.8
20260508160615 58 245 5.0 12.0 0.00 0.00 0.00 31 1009.8
20260508160116 58 272 4.0 11.0 0.00 0.00 0.00 32 1010.0
20260508155614 58 202 3.0 13.0 0.00 0.00 0.00 34 1010.0
20260508155115 58 208 3.0 13.0 0.00 0.00 0.00 35 1009.9
20260508154614 58 293 7.0 13.0 0.00 0.00 0.00 38 1010.0
20260508154116 57 0 0.0 10.0 0.00 0.00 0.00 38 1010.0
20260508153615 58 205 6.0 10.0 0.00 0.00 0.00 43 1010.0
20260508153116 58 278 3.0 10.0 0.00 0.00 0.00 45 1010.1
20260508152614 57 267 5.0 10.0 0.00 0.00 0.00 42 1010.2
20260508152116 57 102 2.0 8.0 0.00 0.00 0.00 43 1010.1
20260508151614 57 134 2.0 9.0 0.00 0.00 0.00 43 1010.0
20260508151115 57 137 5.0 9.0 0.00 0.00 0.00 46 1010.1
20260508150614 56 96 2.0 4.0 0.00 0.00 0.00 50 1010.1
20260508145758 56 210 5.0 14.0 0.00 0.00 0.00 51 1010.3
20260508144758 55 236 3.0 11.0 0.00 0.00 0.00 46 1010.4
20260508144258 55 203 5.0 9.0 0.00 0.00 0.00 45 1010.3
20260508143758 55 234 3.0 9.0 0.00 0.00 0.00 41 1010.3
20260508143258 55 154 4.0 9.0 0.00 0.00 0.00 57 1010.3
20260508142758 54 166 4.0 10.0 0.00 0.00 0.00 57 1010.4
20260508142259 54 155 5.0 10.0 0.00 0.00 0.00 56 1010.5
20260508141759 54 158 3.0 8.0 0.00 0.00 0.00 58 1010.6
20260508141300 53 160 4.0 8.0 0.00 0.00 0.00 59 1010.5
20260508140447 53 150 4.0 9.0 0.00 0.00 0.00 62 1010.6
20260508135947 53 168 4.0 8.0 0.00 0.00 0.00 64 1010.6
20260508135447 52 143 3.0 8.0 0.00 0.00 0.00 65 1010.7
20260508134947 52 190 5.0 9.0 0.00 0.00 0.00 66 1010.6
20260508134447 51 162 4.0 11.0 0.00 0.00 0.00 68 1010.6
20260508133947 51 166 6.0 11.0 0.00 0.00 0.00 69 1010.6
20260508133447 51 140 2.0 6.0 0.00 0.00 0.00 73 1010.7
20260508132947 50 170 2.0 8.0 0.00 0.00 0.00 74 1010.6
20260508132447 50 141 2.0 9.0 0.00 0.00 0.00 75 1010.6
20260508131947 49 167 4.0 10.0 0.00 0.00 0.00 75 1010.7
20260508131447 49 167 5.0 10.0 0.00 0.00 0.00 76 1010.8
20260508130947 48 155 3.0 7.0 0.00 0.00 0.00 76 1010.8
20260508130447 47 160 2.0 7.0 0.00 0.00 0.00 77 1010.7
20260508125947 47 169 4.0 7.0 0.00 0.00 0.00 79 1010.8
20260508125124 45 169 1.0 4.0 0.00 0.00 0.00 82 1010.8
20260508124624 45 0 0.0 4.0 0.00 0.00 0.00 84 1010.8
20260508124124 44 169 1.0 5.0 0.00 0.00 0.00 84 1010.8
20260508123624 43 169 3.0 5.0 0.00 0.00 0.00 85 1010.9
20260508123124 42 169 2.0 4.0 0.00 0.00 0.00 87 1010.9
20260508122124 40 170 2.0 4.0 0.00 0.00 0.00 89 1010.6
20260508121624 39 0 0.0 2.0 0.00 0.00 0.00 89 1010.6
20260508121124 38 0 0.0 0.0 0.00 0.00 0.00 90 1010.4
20260508120625 38 0 0.0 0.0 0.00 0.00 0.00 90 1010.4
20260508120124 37 0 0.0 2.0 0.00 0.00 0.00 90 1010.3
20260508115624 36 0 0.0 4.0 0.00 0.00 0.00 90 1010.3
20260508115124 36 170 1.0 4.0 0.00 0.00 0.00 90 1010.3
20260508114624 35 0 0.0 0.0 0.00 0.00 0.00 89 1010.3
20260508114124 35 0 0.0 0.0 0.00 0.00 0.00 89 1010.2
20260508113624 35 0 0.0 0.0 0.00 0.00 0.00 89 1010.2
20260508113124 34 0 0.0 0.0 0.00 0.00 0.00 89 1010.2
20260508112625 34 0 0.0 0.0 0.00 0.00 0.00 89 1010.2
20260508112124 34 0 0.0 0.0 0.00 0.00 0.00 89 1010.1
20260508111624 34 0 0.0 0.0 0.00 0.00 0.00 88 1010.0
20260508111124 33 0 0.0 1.0 0.00 0.00 0.00 88 1010.0
20260508110624 33 0 0.0 1.0 0.00 0.00 0.00 88 1010.1
20260508110124 33 0 0.0 0.0 0.00 0.00 0.00 88 1010.1
20260508105624 33 0 0.0 2.0 0.00 0.00 0.00 88 1010.1
20260508105124 33 0 0.0 2.0 0.00 0.00 0.00 88 1010.1
20260508104624 34 170 1.0 2.0 0.00 0.00 0.00 88 1010.0
20260508104031 34 0 0.0 0.0 0.00 0.00 0.00 87 1010.0
20260508103531 34 0 0.0 0.0 0.00 0.00 0.00 88 1009.8
20260508103031 34 0 0.0 0.0 0.00 0.00 0.00 87 1009.7
20260508102531 34 0 0.0 0.0 0.00 0.00 0.00 87 1009.8
20260508102031 34 0 0.0 0.0 0.00 0.00 0.00 87 1009.7
20260508100913 35 0 0.0 1.0 0.00 0.00 0.00 88 1009.8
20260508100413 35 0 0.0 2.0 0.00 0.00 0.00 88 1009.8
20260508100108 35 170 1.0 2.0 0.00 0.00 0.00 88 1009.9
20260508095913 35 170 1.0 2.0 0.00 0.00 0.00 88 1009.9
20260508095623 35 170 1.0 2.0 0.00 0.00 0.00 87 1009.9
20260508095413 35 170 1.0 2.0 0.00 0.00 0.00 87 1009.9
20260508094912 35 0 0.0 0.0 0.00 0.00 0.00 87 1009.9
20260508094414 35 0 0.0 2.0 0.00 0.00 0.00 87 1010.0
20260508094054 35 0 0.0 4.0 0.00 0.00 0.00 88 1009.9
20260508093912 35 0 0.0 4.0 0.00 0.00 0.00 88 1009.9
20260508093502 35 170 1.0 4.0 0.00 0.00 0.00 87 1009.9
20260508093413 35 170 1.0 4.0 0.00 0.00 0.00 87 1009.9
20260508093018 35 170 1.0 4.0 0.00 0.00 0.00 87 1010.0
20260508092912 35 170 1.0 4.0 0.00 0.00 0.00 87 1010.0
20260508092413 35 170 1.0 4.0 0.00 0.00 0.00 87 1010.1
20260508091912 35 170 1.0 4.0 0.00 0.00 0.00 87 1010.0
20260508091414 35 170 1.0 4.0 0.00 0.00 0.00 86 1010.1
20260508090913 35 170 1.0 2.0 0.00 0.00 0.00 87 1010.0
20260508090413 35 170 1.0 2.0 0.00 0.00 0.00 87 1009.9
20260508085912 35 170 1.0 2.0 0.00 0.00 0.00 87 1010.0
20260508085412 35 170 1.0 2.0 0.00 0.00 0.00 86 1010.0
20260508084912 35 0 0.0 2.0 0.00 0.00 0.00 86 1010.1
20260508083807 35 170 1.0 4.0 0.00 0.00 0.00 86 1010.1
20260508083307 35 170 2.0 4.0 0.00 0.00 0.00 85 1010.1
20260508082807 36 170 2.0 4.0 0.00 0.00 0.00 86 1010.1
20260508082307 36 170 2.0 4.0 0.00 0.00 0.00 86 1010.1
20260508081807 37 0 0.0 0.0 0.00 0.00 0.00 86 1010.1
20260508080009 37 0 0.0 0.0 0.00 0.00 0.00 85 1010.2
20260508075509 37 0 0.0 1.0 0.00 0.00 0.00 85 1010.1
20260508075009 37 0 0.0 2.0 0.00 0.00 0.00 86 1010.2
20260508074509 37 0 0.0 2.0 0.00 0.00 0.00 86 1010.2
20260508073509 37 0 0.0 1.0 0.00 0.00 0.00 85 1010.3
20260508073009 37 0 0.0 0.0 0.00 0.00 0.00 85 1010.4
20260508072509 37 0 0.0 0.0 0.00 0.00 0.00 85 1010.3
20260508072009 37 0 0.0 2.0 0.00 0.00 0.00 84 1010.5
20260508071509 37 0 0.0 4.0 0.00 0.00 0.00 84 1010.5
20260508070509 38 170 1.0 4.0 0.00 0.00 0.00 84 1010.6
20260508070009 38 170 1.0 4.0 0.00 0.00 0.00 84 1010.7
20260508065509 38 0 0.0 0.0 0.00 0.00 0.00 83 1010.7
20260508065010 38 0 0.0 0.0 0.00 0.00 0.00 83 1010.8
20260508064509 38 0 0.0 0.0 0.00 0.00 0.00 83 1010.8
20260508063509 39 0 0.0 0.0 0.00 0.00 0.00 83 1010.9
20260508062802 39 170 1.0 2.0 0.00 0.00 0.00 82 1010.8
20260508062305 39 0 0.0 4.0 0.00 0.00 0.00 81 1010.8
20260508061802 40 170 1.0 5.0 0.00 0.00 0.00 82 1010.8
20260508061302 40 186 2.0 5.0 0.00 0.00 0.00 81 1010.7
20260508060802 40 0 0.0 0.0 0.00 0.00 0.00 82 1010.9
20260508060302 40 0 0.0 0.0 0.00 0.00 0.00 82 1010.9
20260508055802 40 0 0.0 0.0 0.00 0.00 0.00 82 1011.0
20260508055305 40 0 0.0 0.0 0.00 0.00 0.00 81 1011.1
20260508054802 40 0 0.0 0.0 0.00 0.00 0.00 82 1011.1
20260508054302 40 0 0.0 0.0 0.00 0.00 0.00 82 1011.0
20260508053802 40 0 0.0 0.0 0.00 0.00 0.00 82 1011.0